| time (UTC) | temp F | wind direction | speed MPH | gust MPH | rain 1hr in | rain 24hr in | rain mn in | humidity % | barometer mb |
| 20260509220904 | 63 | 220 | 3.0 | 10.0 | 0.00 | 0.00 | 0.00 | 14 | 1018.9 |
| 20260509220404 | 62 | 344 | 0.0 | 5.0 | 0.00 | 0.00 | 0.00 | 13 | 1019.0 |
| 20260509215904 | 62 | 32 | 1.0 | 9.0 | 0.00 | 0.00 | 0.00 | 14 | 1019.0 |
| 20260509214904 | 61 | 216 | 3.0 | 16.0 | 0.00 | 0.00 | 0.00 | 14 | 1019.0 |
| 20260509214404 | 61 | 242 | 1.0 | 3.0 | 0.00 | 0.00 | 0.00 | 14 | 1019.1 |
| 20260509213904 | 61 | 262 | 2.0 | 8.0 | 0.00 | 0.00 | 0.00 | 14 | 1019.1 |
| 20260509213404 | 61 | 205 | 6.0 | 12.0 | 0.00 | 0.00 | 0.00 | 15 | 1019.1 |
| 20260509212904 | 61 | 225 | 1.0 | 5.0 | 0.00 | 0.00 | 0.00 | 15 | 1019.1 |
| 20260509212404 | 61 | 217 | 3.0 | 9.0 | 0.00 | 0.00 | 0.00 | 15 | 1019.1 |
| 20260509210904 | 61 | 0 | 1.0 | 5.0 | 0.00 | 0.00 | 0.00 | 15 | 1019.0 |
| 20260509210404 | 60 | 234 | 0.0 | 0.0 | 0.00 | 0.00 | 0.00 | 16 | 1019.0 |
| 20260509205903 | 60 | 234 | 0.0 | 5.0 | 0.00 | 0.00 | 0.00 | 16 | 1019.0 |
| 20260509205404 | 60 | 236 | 0.0 | 0.0 | 0.00 | 0.00 | 0.00 | 16 | 1019.0 |
| 20260509204904 | 61 | 238 | 0.0 | 3.0 | 0.00 | 0.00 | 0.00 | 15 | 1019.0 |
| 20260509204404 | 61 | 6 | 1.0 | 3.0 | 0.00 | 0.00 | 0.00 | 14 | 1019.1 |
| 20260509203904 | 62 | 231 | 2.0 | 6.0 | 0.00 | 0.00 | 0.00 | 16 | 1019.0 |
| 20260509202904 | 62 | 225 | 9.0 | 15.0 | 0.00 | 0.00 | 0.00 | 18 | 1018.9 |
| 20260509202404 | 61 | 232 | 5.0 | 12.0 | 0.00 | 0.00 | 0.00 | 17 | 1018.9 |
| 20260509201904 | 61 | 246 | 5.0 | 12.0 | 0.00 | 0.00 | 0.00 | 18 | 1018.9 |
| 20260509201403 | 62 | 240 | 3.0 | 9.0 | 0.00 | 0.00 | 0.00 | 15 | 1019.0 |
| 20260509200904 | 62 | 9 | 0.0 | 8.0 | 0.00 | 0.00 | 0.00 | 17 | 1018.9 |
| 20260509200404 | 61 | 226 | 1.0 | 6.0 | 0.00 | 0.00 | 0.00 | 17 | 1019.0 |
| 20260509195904 | 60 | 228 | 5.0 | 13.0 | 0.00 | 0.00 | 0.00 | 21 | 1019.0 |
| 20260509195404 | 60 | 230 | 1.0 | 5.0 | 0.00 | 0.00 | 0.00 | 16 | 1019.0 |
| 20260509194904 | 60 | 347 | 2.0 | 12.0 | 0.00 | 0.00 | 0.00 | 16 | 1019.0 |
| 20260509194405 | 61 | 276 | 2.0 | 7.0 | 0.00 | 0.00 | 0.00 | 16 | 1018.9 |
| 20260509193904 | 61 | 210 | 3.0 | 12.0 | 0.00 | 0.00 | 0.00 | 16 | 1018.9 |
| 20260509193404 | 61 | 232 | 2.0 | 12.0 | 0.00 | 0.00 | 0.00 | 15 | 1018.9 |
| 20260509192903 | 61 | 230 | 5.0 | 12.0 | 0.00 | 0.00 | 0.00 | 17 | 1019.0 |
| 20260509192404 | 62 | 16 | 3.0 | 10.0 | 0.00 | 0.00 | 0.00 | 15 | 1018.8 |
| 20260509191904 | 62 | 176 | 1.0 | 8.0 | 0.00 | 0.00 | 0.00 | 19 | 1018.9 |
| 20260509190904 | 61 | 344 | 1.0 | 9.0 | 0.00 | 0.00 | 0.00 | 16 | 1019.0 |
| 20260509190411 | 61 | 40 | 1.0 | 6.0 | 0.00 | 0.00 | 0.00 | 16 | 1018.8 |
| 20260509185905 | 61 | 267 | 1.0 | 10.0 | 0.00 | 0.00 | 0.00 | 19 | 1018.9 |
| 20260509184904 | 60 | 37 | 1.0 | 8.0 | 0.00 | 0.00 | 0.00 | 16 | 1019.0 |
| 20260509184404 | 60 | 35 | 2.0 | 7.0 | 0.00 | 0.00 | 0.00 | 17 | 1019.0 |
| 20260509183904 | 59 | 268 | 0.0 | 6.0 | 0.00 | 0.00 | 0.00 | 18 | 1019.0 |
| 20260509183404 | 59 | 29 | 2.0 | 5.0 | 0.00 | 0.00 | 0.00 | 18 | 1019.1 |
| 20260509182904 | 59 | 305 | 0.0 | 6.0 | 0.00 | 0.00 | 0.00 | 19 | 1019.1 |
| 20260509182403 | 58 | 257 | 0.0 | 5.0 | 0.00 | 0.00 | 0.00 | 19 | 1019.1 |
| 20260509181919 | 57 | 46 | 2.0 | 6.0 | 0.00 | 0.00 | 0.00 | 19 | 1019.1 |
| 20260509181404 | 57 | 60 | 1.0 | 6.0 | 0.00 | 0.00 | 0.00 | 19 | 1019.2 |
| 20260509180904 | 57 | 44 | 3.0 | 18.0 | 0.00 | 0.00 | 0.00 | 19 | 1019.1 |
| 20260509180404 | 57 | 43 | 7.0 | 15.0 | 0.00 | 0.00 | 0.00 | 19 | 1019.1 |
| 20260509175904 | 57 | 34 | 3.0 | 8.0 | 0.00 | 0.00 | 0.00 | 20 | 1019.0 |
| 20260509175404 | 57 | 38 | 5.0 | 9.0 | 0.00 | 0.00 | 0.00 | 19 | 1018.9 |
| 20260509174904 | 58 | 34 | 3.0 | 12.0 | 0.00 | 0.00 | 0.00 | 19 | 1018.9 |
| 20260509174404 | 57 | 29 | 3.0 | 9.0 | 0.00 | 0.00 | 0.00 | 19 | 1018.8 |
| 20260509173404 | 58 | 22 | 6.0 | 13.0 | 0.00 | 0.00 | 0.00 | 20 | 1018.7 |
| 20260509172904 | 58 | 43 | 2.0 | 14.0 | 0.00 | 0.00 | 0.00 | 20 | 1018.7 |
| 20260509172411 | 58 | 40 | 4.0 | 9.0 | 0.00 | 0.00 | 0.00 | 20 | 1018.7 |
| 20260509171904 | 57 | 41 | 6.0 | 12.0 | 0.00 | 0.00 | 0.00 | 20 | 1018.8 |
| 20260509171404 | 57 | 52 | 3.0 | 16.0 | 0.00 | 0.00 | 0.00 | 20 | 1018.8 |
| 20260509170919 | 58 | 48 | 7.0 | 14.0 | 0.00 | 0.00 | 0.00 | 18 | 1018.9 |
| 20260509170404 | 58 | 39 | 3.0 | 15.0 | 0.00 | 0.00 | 0.00 | 19 | 1018.8 |
| 20260509165904 | 58 | 31 | 3.0 | 13.0 | 0.00 | 0.00 | 0.00 | 18 | 1018.8 |
| 20260509165404 | 58 | 3 | 3.0 | 9.0 | 0.00 | 0.00 | 0.00 | 19 | 1018.9 |
| 20260509164904 | 58 | 355 | 5.0 | 12.0 | 0.00 | 0.00 | 0.00 | 18 | 1018.8 |
| 20260509164404 | 58 | 9 | 1.0 | 9.0 | 0.00 | 0.00 | 0.00 | 18 | 1018.8 |
| 20260509163903 | 58 | 284 | 6.0 | 9.0 | 0.00 | 0.00 | 0.00 | 18 | 1018.8 |
| 20260509162903 | 58 | 99 | 2.0 | 8.0 | 0.00 | 0.00 | 0.00 | 18 | 1018.7 |
| 20260509162405 | 58 | 35 | 3.0 | 10.0 | 0.00 | 0.00 | 0.00 | 19 | 1018.8 |
| 20260509161905 | 58 | 35 | 2.0 | 10.0 | 0.00 | 0.00 | 0.00 | 18 | 1018.8 |
| 20260509161404 | 57 | 5 | 0.0 | 8.0 | 0.00 | 0.00 | 0.00 | 22 | 1018.8 |
| 20260509160903 | 57 | 222 | 5.0 | 13.0 | 0.00 | 0.00 | 0.00 | 21 | 1018.8 |
| 20260509155403 | 57 | 236 | 5.0 | 12.0 | 0.00 | 0.00 | 0.00 | 22 | 1018.6 |
| 20260509154904 | 56 | 276 | 4.0 | 12.0 | 0.00 | 0.00 | 0.00 | 23 | 1018.5 |
| 20260509154404 | 56 | 257 | 3.0 | 9.0 | 0.00 | 0.00 | 0.00 | 23 | 1018.5 |